Regional Weather Roundup
Issued by NWS Wakefield, VA

Home | Current Version | Previous Version | Text Only | Print | Product List | Glossary On
Versions: 1 2 3 4 5 6 7 8 9 10 11 12 13 14 15 16 17 18 19 20 21 22 23 24 25 26 27 28 29 30 31 32 33 34 35 36 37 38 39 40 41 42 43 44 45 46 47 48 49 50
914
ASUS41 KAKQ 201616
RWRAKQ

REGIONAL WEATHER ROUNDUP
NATIONAL WEATHER SERVICE WAKEFIELD VA
1200 PM EDT SUN AUG 20 2017

Note: "fair" indicates few or no clouds below 12,000 feet with no
significant weather and/or obstructions to visibility. * = Denotes
station may not report precipitation (e.g., rain,snow,etc.),
thunder or fog.

VAZ042-051-052>054-056-201700-
NORTHERN VIRGINIA

CITY           SKY/WX    TMP DP  RH WIND       PRES   REMARKS
WASH NATIONAL  SUNNY     83  63  50 NE7       30.14S
DULLES         MOSUNNY   79  60  52 N7        30.15S
FORT BELVOIR   SUNNY     82  63  51 NW9       30.13S
QUANTICO       SUNNY     81  68  64 E6        30.14S
FREDERICKSBRG* SUNNY     82  66  59 CALM      30.13S
STAFFORD*      SUNNY     81  65  58 CALM      30.18S
WARRENTON      SUNNY     82  61  50 NE5       30.15S
CULPEPER*      SUNNY     81  66  61 N5        30.16S
MANASSAS*      SUNNY     80  64  58 NE5       30.15S
LEESBURG*      SUNNY     79  63  57 CALM      30.16F
WINCHESTER     SUNNY     77  59  53 CALM      30.17S
FRONT ROYAL*   SUNNY     77  63  61 CALM      30.16S
LURAY*         SUNNY     81  63  54 E3        30.17R
$$

VAZ048-049-060>072-079>083-201700-
CENTRAL AND SOUTH CENTRAL VIRGINIA

CITY           SKY/WX    TMP DP  RH WIND       PRES   REMARKS
RICHMOND       MOSUNNY   84  68  58 E6        30.13R
CHESTERFIELD*  FAIR      84  67  56 N8        30.14R
PETERSBURG*    SUNNY     84  63  48 NE10      30.13R
HANOVER        SUNNY     84  65  52 N5        30.15R
TAPPAHANNOCK*  SUNNY     83  62  47 N3        30.14S
QUINTON*       FAIR     N/A N/A N/A CALM      30.13R
CHARLOTTSVILLE SUNNY     81  64  56 CALM      30.16S
GORDONSVILLE*  SUNNY     80  67  64 NE5       30.15S
ORANGE*        SUNNY     79  64  61 CALM      30.15S
LOUISA*        SUNNY     81  64  57 N6        30.15S
BUMPASS*       FAIR      81  68  63 SE6       30.15S
FARMVILLE*     SUNNY     86  59  40 E6        30.13S
CREWE*         FAIR      83  62  48 CALM      30.14R
FORT PICKETT*  FAIR     N/A N/A N/A N3        30.14R
CHASE CITY*    FAIR      84  69  60 CALM      30.14R
CLARKSVILLE*   FAIR      82  72  69 E3        30.13R
SOUTH HILL*    SUNNY     84  73  70 N5        30.18S
LAWRENCEVILLE* FAIR      84  72  67 N3        30.12S
EMPORIA*       SUNNY     86  72  62 E5        30.13R
$$

VAZ088>098-201700-
SOUTHEAST VIRGINIA

CITY           SKY/WX    TMP DP  RH WIND       PRES   REMARKS
NORFOLK        SUNNY     85  76  74 NE10      30.10S
VIRGINIA BEACH MOSUNNY   85  74  69 E7        30.10R
NORFOLK NAVAL  MOSUNNY   86  74  67 E10       30.12R
WEST POINT*    SUNNY     85  65  51 CALM      30.14R
SALUDA*        FAIR      82  70  67 E7        30.12R
NEWPORT NEWS   SUNNY     85  72  65 E9        30.11R
LANGLEY AFB    NOT AVBL
FORT EUSTIS    SUNNY     89  72  56 NE5       30.09R HX  97
WILLIAMSBURG*  SUNNY     90  73  58 CALM      30.12S HX  98
HR EXEC AP*    FAIR      88  73  62 E6        30.08S HX  96
FRANKLIN*      SUNNY     87  69  56 E5        30.11S
US460-WAKEFLD  MOSUNNY   86  75  69 VRB3      30.11S HX  95
$$

VAZ020-022-025-037-045-201700-
WEST CENTRAL AND SOUTHWEST VIRGINIA

CITY           SKY/WX    TMP DP  RH WIND       PRES   REMARKS
STAUNTON*      SUNNY     80  66  62 CALM      30.19S
WAYNESBORO*    SUNNY     81  65  59 E5        30.18S
HOT SPRINGS VA PTSUNNY   72  61  68 CALM      30.31R
LYNCHBURG      SUNNY     83  66  56 VRB5      30.16S
DANVILLE       SUNNY     86  69  56 NE7       30.14R
SOUTH BOSTON*  FAIR      85  69  58 NE5       30.13S
MARTINSVILLE   SUNNY     85  67  55 E5        30.18S
ROANOKE        MOSUNNY   86  65  49 CALM      30.18S
BLACKSBURG     MOSUNNY   81  65  57 SE6       30.25S
DUBLIN*        MOSUNNY   81  67  61 E6        30.23S
MARION*        SUNNY     80  45  28 NE5       30.26S
HILLSVILLE*    SUNNY     78  60  53 CALM      30.24S
RICHLANDS*     FAIR      78  62  58 CALM      30.24S
WISE*          PTSUNNY   77  63  61 N3        30.25F
ABINGDON*      SUNNY     82  65  56 CALM      30.21F
$$

MDZ021>025-VAZ099-100-201700-
SOUTHERN MARYLAND AND THE DELMARVA PENINSULA

CITY           SKY/WX    TMP DP  RH WIND       PRES   REMARKS
PATUXENT RIVER MOSUNNY   81  66  60 N8        30.13R
BAY BRIDGE APT SUNNY     77  63  61 N5        30.14R
LEONARDTOWN    SUNNY     79  63  57 N3        30.15R
DOVER          MOSUNNY   79  61  53 NW8       30.10S
GEORGETOWN     SUNNY     82  61  48 VRB7      30.12R
EASTON         NOT AVBL
CAMBRIDGE      SUNNY     81  63  54 N9        30.12R
SALISBURY      SUNNY     83  66  56 N6        30.11R
OCEAN CITY     SUNNY     80  71  74 E8        30.11S
WALLOPS ISLAND SUNNY     83  69  62 E3        30.11S
ACCOMACK*      SUNNY     84  68  58 CALM      30.11S
$$

NCZ012>017-030>032-201700-
NORTH CENTRAL AND EASTERN NORTH CAROLINA

CITY           SKY/WX    TMP DP  RH WIND       PRES   REMARKS
ROANOKE RAPIDS FAIR      86  72  62 CALM      30.12R
RALEIGH        MOSUNNY   90  67  46 VRB3      30.13R
ELIZABETH CITY SUNNY     89  75  63 NE6       30.10S HX  99
AHOSKIE*         N/A     86  71  60 N3        30.11R
EDENTON*       SUNNY     90  74  60 CALM      30.10F HX  99
CURRITUCK*     SUNNY     85  75  70 NE7       30.11S
KILL DEVIL HLS SUNNY     82  74  75 CALM      30.09S
MANTEO         SUNNY     84  75  75 CALM      30.11R
CAPE HATTERAS  CLOUDY    80  77  90 SW5       30.11R
TARBORO*       NOT AVBL
GOLDSBORO      MOSUNNY   90  73  58 VRB5      30.10R HX  98
WASHINGTON     CLOUDY    86  74  67 CALM      30.10F
GREENVILLE     MOSUNNY   90  72  55 N5        30.11S HX  96
NEW BERN       MOSUNNY   86  76  71 CALM      30.11S HX  96
WILMINGTON     PTSUNNY   86  78  77 E8        30.09F HX  98
$$

VAZ048-201700-
ELSEWHERE

CITY           SKY/WX    TMP DP  RH WIND       PRES   REMARKS
HARRISBURG PA  SUNNY     78  61  55 VRB3      30.13R
BALTIMORE      SUNNY     80  62  54 VRB3      30.13S
ANNAPOLIS      SUNNY     81  61  50 NW8       30.12S
ANDREWS AFB    SUNNY     80  60  50 N6        30.13S
PHILADELPHIA   MOSUNNY   80  59  48 N6        30.11R
HENDERSON NC   SUNNY     83  69  64 E6        30.13R
GREENSBORO     MOSUNNY   86  66  51 VRB5      30.14S
ROCKY MOUNT    SUNNY     89  71  55 NE6       30.11S HX  95
$$

VAZ100-201700-
MARINE

STATION/POSITION TIME  TEMP    WIND        PRES    WAVE   SWELL
                       AIR SEA DIR/SP/G            HT/PER HT/PER
                 (UTC) (F)     (DEG/KT/KT) (MB)    (FT/S) (FT/S)
BRANDYWINE LGT   1536   74     330/  7/  9 1019.9S
CAPE MAY NJ      1542   78 79  320/  6/ 11 1019.0S
LEWES DE         1548   75 78  350/ 11/ 13 1019.4R
15NM E FENWICK I 1550   75 78  320/  6/  8 1020.2R   2/ 7   2/ 7
OCEAN-CITY-INLET 1548   78 77   80/  7/ 10 1020.0R
WACHAPREAGUE VA  1548   81 84  100/  6/  9 1019.6R
THOMAS POINT MD  1600   76 80   40/  7/  8   N/A
GOOSES REEF MD   1600   77 80   40/ 10/ 12 1021.0    1/ 2
COVE POINT MD    1548   77     350/ 10/ 14 1020.9R
SOLOMONS ISLAND  1548   78 82  330/  7/ 11   N/A
BISHOPS HEAD MD  1548   80 82   40/  5/  8 1020.1R
PINEY POINT MD   1548          360/  5/  6   N/A
POTOMAC MD       1600   79 82   40/  8/ 10 1019.4    1
CAMBRIDGE MD     1548   81 83              1020.9R
LEWISETTA VA     1548   80 83   30/  4/  7 1020.1R
RAPPAHANNOCK LGT 1548          360/  9/ 10 1020.4R
STINGRAY PT      1600   79 82   50/  8/ 10 1020.3    2/ 3
YORK RVR RNG VA  1548   81      60/ 10/ 11 1020.2R
YORKTOWN VA      1548   81 83   90/ 10/ 12 1019.5R
JAMESTOWN VA     1600      85  100/  4/  8   N/A     0
DOMINION TERM VA 1536   84      90/  4/  9 1019.5R
KIPTOPEKE VA     1536      81   70/  8/ 11   N/A
CHES BAY BRIDGE  1536   79 77  100/ 11/ 12 1019.5R
CAPE HENRY VA    1536   79      40/  8/ 11   N/A
WILLOUBY STN VA  1536   81      80/  7/  8 1019.6R
S CRANEY ISL VA  1536   83      50/  5/  6 1019.2R
CAPE HENRY BUOY  1530      80                N/A     2/ 9
1ST LANDING BUOY 1600   80 80              1019.6    1
64NM E OF VA BCH 1550   79 79   40/  6/  6 1019.9R   2/ 8   2/ 8
DUCK PIER NC     1536   79 75  360/  4/  5 1018.9S
44100 DUCK FRF   1505      81                N/A     2/ 8
44056 DUCK FRF   1600      79                N/A     2/ 8
OREGON INLET NC  1536   80 78   30/  4/  6 1019.2R
HATTERAS NC      1536   80 80  220/  3/  5 1019.4R
DIAMOND SHLS NC  1550   80 84  310/  6/  6 1019.1F   3/ 8   2/ 8
CAPE LOOKOUT NC  1600   80      80/  1/  2 1018.6F
$$




USA.gov is the U.S. government's official web portal to all federal, state and local government web resources and services.